Home   Weather   Neenah   Past weeks

Flag for USA Past Weather in Neenah, Wisconsin, USA — Yesterday and Last 2 Weeks

Now
68 °F

Clear.


Feels Like: 68 °F
Forecast: 61 / 82 °F
Wind: 7 mph from Southwest

Location: Appleton / Outagamie

Current Time: Aug 19, 2017 at 11:24:34 pm

Latest Report: Aug 19, 2017 at 10:45 pm


Visibility: 10 mi

Pressure: 29.94 "Hg

Humidity: 64%

Dew Point: 55 °F

Location of NeenahLocation

Past Weather in Neenah — Graph

°F

Neenah Temperature Yesterday

Maximum temperature yesterday: 73 °F (at 3:45 pm)
Minimum temperature yesterday: 63 °F (at 12:35 am)
Average temperature yesterday: 65 °F

High & Low Weather Summary for the Past Weeks

 TemperatureHumidityPressure
High81 °F (Aug 8, 2:45 pm)100% (Aug 4, 11:15 pm)30.16 "Hg (Aug 4, 11:15 pm)
Low52 °F (Aug 5, 2:55 am)30% (Aug 8, 4:45 pm)29.58 "Hg (Aug 17, 3:45 pm)
Average65 °F75%29.96 "Hg
* Reported Aug 4 9:45 pm — Aug 19 9:45 pm, Neenah. Weather by CustomWeather, © 2017

Note: Actual official high and low records may vary slightly from our data, if they occured in-between our weather recording intervals... More about our weather records

Advertising

Neenah Weather History for the Previous 24 Hours

Scroll right to see more
 ConditionsComfort  
Time TempWeatherWind HumidityBarometerVisibility
9:45 pm
Sat, Aug 19
66 °FClear.6 mph68%29.94 "Hg10 mi
8:45 pm72 °FClear.7 mph57%29.93 "Hg10 mi
7:45 pm75 °FSunny.3 mph50%29.91 "Hg10 mi
6:45 pm77 °FScattered clouds.3 mph51%29.91 "Hg10 mi
5:45 pm79 °FScattered clouds.8 mph42%29.91 "Hg10 mi
4:45 pm81 °FScattered clouds.14 mph39%29.91 "Hg10 mi
3:45 pm81 °FScattered clouds.10 mph39%29.91 "Hg10 mi
2:45 pm81 °FScattered clouds.14 mph39%29.91 "Hg10 mi
1:45 pm79 °FScattered clouds.12 mph42%29.92 "Hg10 mi
12:45 pm79 °FPassing clouds.13 mph45%29.93 "Hg10 mi
11:45 am75 °FSunny.9 mph54%29.93 "Hg10 mi
10:45 am73 °FMild.8 mph61%29.93 "HgN/A
9:45 am70 °FScattered clouds.8 mph83%29.93 "Hg10 mi
9:15 am68 °FBroken clouds.6 mph88%29.93 "Hg7 mi
7:45 am63 °FFog.6 mph100%29.93 "Hg4 mi
6:45 am63 °FFog.6 mph100%29.92 "Hg4 mi
5:45 am61 °FFog.8 mph100%29.90 "Hg4 mi
5:20 am63 °FFog.10 mph100%29.89 "Hg1 mi
5:15 am61 °FFog.10 mph100%29.89 "Hg1 mi
4:55 am61 °FFog.9 mph100%29.89 "Hg0 mi
4:35 am61 °FFog.8 mph100%29.89 "Hg0 mi
4:15 am61 °FFog.6 mph100%29.89 "Hg0 mi
3:55 am61 °FFog.7 mph100%29.89 "Hg0 mi
3:35 am59 °FFog.7 mph100%29.89 "Hg0 mi
3:15 am59 °FFog.6 mph100%29.88 "Hg4 mi
2:35 am61 °FClear.5 mph94%29.87 "Hg7 mi
1:55 am61 °FClear.6 mph100%29.87 "Hg10 mi
1:35 am61 °FClear.6 mph100%29.88 "Hg10 mi
1:15 am61 °FClear.5 mph100%29.89 "Hg10 mi
12:55 am63 °FClear.7 mph94%29.89 "Hg10 mi
12:35 am63 °FClear.7 mph94%29.89 "Hg10 mi
12:15 am63 °FClear.6 mph94%29.89 "Hg10 mi
11:55 pm
Fri, Aug 18
63 °FClear.7 mph94%29.89 "Hg10 mi
11:15 pm63 °FClear.8 mph88%29.88 "Hg10 mi
Weather by CustomWeather, © 2017

See weather overviewHow to use our weather pages